Showing default

LEMUR 2 AHMED-ASRAR, 60576

Orbit data source: Space-Track

LEMUR 2 AHMED-ASRAR, 60576 is an American payload satellite in SSO that was launched on Fri, 16 Aug 2024 UTC via an FALCON 9 launch vehicle from the Air Force Western Test Range (AFWTR). Payload-class satellites include a variety of spacecraft equipped with specific instruments for various scientific and technological missions. These include communications satellites like Starlink; space stations such as the ISS; scientific satellites like the Hubble; Earth observation satellites from companies like Planet Labs, Umbra, and HawkEye 360; GPS; miniature CubeSats for education and research; and military/defense satellites.

Loading next visibility...
Identifier
60576, 2024-149DN
Orbit
SSO
Country
Flag of USUS
Related business
Manufacturer
Spire/Glasgow
Mission
Operational Commercial Com/MetRO
Bus & Motor
CUBESAT 3U, Unknown motor
Mass
7.6 kg wet, 7.6 kg dry
Launch date (UTC)
2024-08-16 (1 year ago)
Launch vehicle
FALCON 9
Launch site
Air Force Western Test Range (AFWTR)
Object type
Payload
Rocket body
Debris
Shape & HBR
Box + 2 Pan, 0.5 m
Radar Cross Section
0.063 m², Small (<0.1 m²)

Expand to show TLE details & history
Last TLE update: 18 hours ago

TLE from 18 hours ago
0 LEMUR 2 AHMED-ASRAR
1 60576U 24149DN  25286.90735231  .00014210  00000-0  98250-3 0  9992
2 60576  97.7193   5.6074 0003403 120.0494 240.1070 15.05822509 63419
Epoch: 2025-10-13T21:46Z
TLE epoch observation values (Epoch: 2025-10-13T21:46:35.239Z)
Latitude
-0.00007°
Longitude
16.25718°
Altitude
553.22 km
Speed
7.584 km/s
True Right ascension
00h 22m 25s
True Declination
0° 00' 00"
Sunlit
Object was in full shadow at epoch
Visualization orbit readout
Latitude
Unknown
Longitude
Unknown
Altitude
Unknown
Speed
Unknown
Apparent Right ascension
Unknown
Apparent Declination
Unknown
Sunlit
N/A
Visualization observer readout
Local Sidereal Time
10:38:33
Azimuth
Unknown
Elevation
Unknown
Doppler factor
Unknown
Orbital elements
Apogee altitude
548.337 km
Perigee altitude
543.624 km
Semi-major axis
6,924.117 km
Eccentricity
0.00034
Inclination
97.7193°
RAAN
5.6074°
Arg. of periapsis
120.0494°
True anomaly
240.0732°
Mean anomaly
240.107°
Eccentric anomaly
240.0901°
Mean motion
3.76701 °/min
Orbital period
95.57 mins
BSTAR
0.0009825
Loading maneuver chart data...
Computing Atmospheric mass density...
Loading historical data...
Loading historical data...
Loading historical data...
Loading historical data...
Loading historical data...
Loading historical data...
Loading historical data...

Documentation

Showing up to 5 results
|